カタログに戻る

CZ-6A DEB

運用中SSO
NORAD 54444·DEBRIS·🇨🇳 China

打ち上げ Nov 11, 2022 から Taiyuan Satellite Launch Center

Loading…

次のパス (今後24時間)

TLE

最新Source: Space-Track

元期: Sep 14, 2026, 21:51 UTC

1 54444U 22151FU  26257.91072712  .00001484  00000-0  35667-3 0  9990
2 54444  98.7180 325.8215 0110355 328.1518  31.3034 14.51371099202003

AllMySatでCZ-6A DEBをリアルタイム追跡

Download on the App Store